Tracking 19125 objects as of 19-Apr-2018
HD Live streaming from Space Station
objects crossing your sky now

STEP 2

Track STEP 2 now!
10-day predictions
STEP 2 is classified as:


NORAD ID: 23105
Int'l Code: 1994-029A
Perigee: 574.7 km
Apogee: 726.0 km
Inclination: 81.9 °
Period: 97.6 minutes
Semi major axis: 7021 km
RCS: 2.0652 m2 (large)
Launch date: May 19, 1994
Source: United States (US)
Launch site: AIR FORCE WESTERN TEST RANGE (AFWTR)
aabbcc
Your satellite tracking list
Your tracking list is empty




NASA's NSSDC Master Catalog

Two Line Element Set (TLE):
1 23105U 94029A   18108.99541178  .00000346  00000-0  43008-4 0  9999
2 23105  81.9456 282.7661 0107766 166.7516 193.6566 14.75610743279379
Source of the keplerian elements: AFSPC